Theta_e
321 321 321 321 322 322 323 323 323 325 324 321 321 322 324 326 325 325 326 327 329 331 331 332 332 332 331 332 331 331 333 333 334 332 337 338 335 334 326 318 314 311 322 329 331 332 332 331 328 325 323 329 334 330 329 327 321 321 324 325 323 319 318 322 327 328 329 325 326 330 329 329 329 330 330 329 329 328 326 323 322 325 327 327 326 326 326 324 322 322 324 322 322 322 322 321 319
321 321 321 321 322 323 324 322 322 323 321 319 321 323 324 325 325 326 326 327 330 330 331 332 332 331 331 331 331 331 332 334 336 336 337 335 336 334 320 314 314 317 320 325 331 332 332 330 327 325 322 326 331 330 329 326 321 323 327 328 324 321 323 324 326 327 329 327 326 329 329 329 330 330 330 329 329 329 328 322 319 323 328 329 328 328 326 323 321 321 321 321 322 322 321 318 314
321 322 322 322 324 324 323 322 321 320 319 319 321 323 324 325 326 326 328 329 330 329 331 332 331 331 330 330 330 331 333 336 338 336 335 334 336 330 316 313 318 321 318 324 332 332 332 329 325 325 323 325 329 330 329 326 321 321 325 325 321 322 326 324 323 326 327 327 327 329 330 330 329 329 329 329 329 329 327 322 321 326 329 329 328 328 324 322 321 321 321 322 321 319 317 314 313
323 324 323 323 325 325 323 322 322 320 318 318 320 323 323 325 327 328 330 331 331 331 332 332 332 332 331 332 329 331 336 337 338 335 333 335 335 322 312 313 319 321 316 326 332 332 331 327 325 322 322 324 327 329 327 324 319 317 319 320 317 321 325 323 325 327 328 327 328 329 330 329 328 329 329 329 329 327 325 324 325 328 330 329 328 326 322 321 322 322 322 321 318 315 314 313 314
324 325 324 323 325 326 323 322 323 320 319 319 320 323 324 325 327 329 331 331 330 331 331 331 332 331 330 332 331 334 337 336 337 335 333 336 332 316 309 312 319 317 314 326 332 332 330 325 324 319 320 322 321 325 324 321 317 316 318 318 318 320 321 321 325 327 328 327 327 329 329 329 328 328 328 329 329 328 326 324 326 329 330 330 327 323 322 322 322 322 320 318 315 314 314 315 315
323 325 324 324 325 325 322 320 319 320 321 322 322 322 324 325 327 329 331 330 330 331 331 332 332 331 331 332 333 334 337 337 337 336 336 333 323 313 309 311 319 317 315 326 332 332 327 322 322 318 319 318 317 319 320 320 317 320 321 320 321 322 320 322 325 325 326 326 326 328 328 328 328 328 328 329 330 329 327 324 324 326 327 326 324 322 322 322 321 320 317 316 315 316 316 316 317
323 325 325 325 325 325 324 320 319 321 322 323 322 322 323 325 328 329 330 329 329 330 329 332 331 330 332 333 332 331 333 337 338 336 334 326 316 312 309 312 318 317 317 325 331 331 324 320 321 320 318 316 318 319 317 321 323 325 326 326 325 323 322 322 326 325 326 328 328 328 327 328 327 325 326 327 329 328 327 324 323 323 322 321 321 321 321 321 319 317 316 317 317 317 318 318 318
323 325 325 325 327 327 325 321 321 323 322 322 322 322 324 327 329 328 329 328 329 329 329 332 331 330 330 331 335 332 329 334 337 335 329 320 314 311 308 316 319 316 316 323 331 329 320 321 323 321 318 315 320 320 319 324 327 327 328 330 327 324 324 322 324 326 326 328 327 326 326 327 325 323 323 325 326 326 324 323 323 323 320 320 320 320 319 319 318 317 317 317 318 318 318 318 318
323 324 325 325 328 328 326 323 321 323 322 322 322 321 323 326 328 327 328 328 329 329 330 331 331 331 328 331 336 334 331 332 334 331 326 318 314 311 308 319 319 313 313 321 331 327 318 320 322 321 318 315 319 319 320 324 327 329 328 330 328 323 323 320 321 324 324 324 323 322 323 324 324 322 321 322 322 321 321 321 322 320 319 319 319 318 318 318 317 317 318 318 318 318 318 319 319
323 325 326 327 328 326 326 324 321 322 322 322 322 321 322 326 328 328 327 327 328 328 330 331 331 330 328 331 336 336 334 331 331 328 324 317 314 310 309 319 318 311 310 319 329 327 319 317 318 319 318 316 317 317 317 320 325 328 329 329 327 321 319 317 317 320 319 319 319 319 320 322 323 321 319 319 320 319 319 320 320 319 318 318 318 318 318 318 318 318 318 318 318 318 319 319 319
324 325 325 327 326 325 326 324 321 322 322 321 321 321 321 325 328 328 328 327 327 329 331 331 330 329 328 331 336 336 331 329 331 328 323 316 314 311 310 317 316 312 310 318 328 328 321 315 317 318 317 317 316 315 316 317 318 323 326 325 323 318 316 315 314 315 314 317 318 318 319 320 321 319 319 319 319 318 319 319 319 319 318 318 318 318 318 318 318 318 318 318 318 319 319 319 319
325 326 325 327 327 327 328 325 322 321 322 321 321 321 321 325 328 328 327 327 327 329 331 330 329 329 327 330 336 333 327 330 333 329 321 316 314 311 310 313 313 313 310 319 329 329 323 313 315 317 316 318 317 315 316 317 314 316 320 319 318 315 313 312 312 312 312 316 318 320 319 318 319 318 319 319 319 319 318 319 319 319 318 318 318 318 318 318 318 318 318 318 319 319 319 319 319
326 327 326 327 328 329 328 326 324 320 321 321 323 322 321 325 328 327 326 326 326 327 329 329 328 327 326 331 336 333 326 330 334 329 320 316 314 312 311 310 311 312 309 320 330 331 326 317 317 319 315 318 317 313 314 316 314 313 315 315 315 313 312 311 311 311 312 315 317 320 318 317 319 318 318 318 319 319 319 319 319 319 318 318 318 318 318 318 318 318 319 319 319 319 319 319 318
326 326 326 328 328 329 328 328 326 320 319 322 324 322 322 325 327 327 327 325 325 327 329 329 327 326 327 329 334 334 329 329 334 328 320 317 315 314 312 311 311 311 309 319 328 329 330 327 323 320 315 318 316 311 312 313 312 311 312 312 312 311 311 310 310 311 312 314 316 318 317 317 318 318 318 318 318 318 319 318 318 319 318 318 318 318 318 318 318 318 319 319 319 319 319 319 319
325 326 326 328 328 327 327 328 327 321 319 323 323 323 323 325 327 327 327 325 326 328 328 328 327 325 325 325 331 336 329 327 332 327 321 317 316 315 314 313 311 311 309 317 326 328 331 330 326 323 317 318 317 312 311 310 310 310 309 310 310 309 310 310 310 311 311 312 315 316 316 317 317 317 318 318 318 318 318 318 318 318 318 318 318 318 318 318 318 318 319 319 319 319 318 319 319
324 324 325 327 327 327 327 328 327 322 320 323 322 323 324 324 326 326 326 326 326 327 326 327 326 326 327 327 333 336 329 326 329 326 321 318 317 317 315 315 312 313 309 316 326 327 329 330 329 328 320 319 323 319 314 309 309 309 309 310 309 309 309 310 310 311 312 312 313 315 315 316 317 317 317 318 318 318 318 318 318 318 318 318 318 318 319 318 319 318 318 318 319 319 319 319 319
322 323 325 326 326 327 328 328 328 324 321 323 322 323 324 324 324 324 325 325 326 326 326 329 326 326 329 327 331 335 329 325 327 327 322 318 319 317 317 316 314 315 310 316 327 328 328 330 329 329 325 324 325 323 317 309 310 309 309 309 308 309 309 309 311 312 313 312 312 313 314 315 316 316 317 317 317 317 317 317 317 317 317 318 318 318 318 318 318 318 318 318 318 319 319 318 318
321 323 326 326 328 328 328 329 327 324 320 321 323 324 325 324 323 323 324 324 326 326 326 329 326 326 326 323 329 330 325 325 327 328 323 319 319 318 318 317 316 317 312 315 326 328 327 329 329 329 329 328 325 324 320 312 310 309 309 309 310 309 309 309 309 312 312 312 312 312 315 316 317 316 316 317 317 317 317 317 317 317 317 317 317 317 317 318 318 318 318 318 318 318 318 318 318
322 325 327 328 330 328 327 327 325 323 320 320 322 324 325 325 324 323 324 324 326 326 326 328 327 327 325 321 326 325 323 326 328 328 325 321 320 320 319 318 318 319 315 314 322 326 325 326 329 329 330 329 326 326 325 319 311 309 312 309 310 310 309 310 308 310 311 312 312 313 318 320 319 317 315 316 316 316 316 316 317 316 317 316 316 317 317 317 317 318 318 318 318 318 318 319 318
322 325 327 329 329 325 323 323 321 321 319 319 320 322 325 325 324 323 324 325 325 325 325 328 327 329 328 324 324 322 321 326 329 329 326 324 321 321 320 319 319 318 317 316 318 324 324 325 327 326 327 328 328 327 327 326 315 311 319 313 311 311 309 310 309 309 309 311 311 315 321 319 316 315 314 315 315 316 316 316 316 316 316 316 316 316 316 317 317 317 317 317 317 317 317 318 318
325 324 326 329 328 325 322 321 319 318 318 319 319 319 323 324 323 323 324 324 325 325 325 327 326 328 331 327 324 322 321 325 330 330 328 326 323 321 321 320 320 319 318 317 317 321 322 324 326 325 325 325 328 328 326 328 320 314 320 316 312 311 309 310 309 309 309 309 309 314 319 315 311 312 313 314 314 315 315 315 315 315 315 315 315 315 315 316 316 317 317 317 317 317 316 316 315
326 324 327 327 324 325 322 319 317 316 317 318 318 318 320 323 323 323 324 324 323 325 324 325 324 326 330 326 323 322 321 324 327 330 329 328 327 324 323 321 320 320 318 318 317 318 318 320 322 323 324 322 324 327 328 328 323 316 317 313 313 312 310 310 310 310 309 309 308 310 312 310 309 311 311 313 313 314 314 314 314 314 315 315 315 315 315 315 315 316 316 316 316 315 314 314 312
325 325 327 325 323 323 320 317 316 315 316 318 318 318 319 320 321 322 323 324 324 323 323 324 324 326 329 325 322 322 321 322 324 326 328 329 329 327 325 323 321 320 319 318 318 318 317 315 316 318 320 320 319 325 329 328 321 316 315 312 313 313 311 311 310 310 309 309 309 308 308 308 308 309 310 311 312 312 313 313 313 314 314 314 315 315 315 315 315 315 315 315 315 313 312 312 311
325 328 325 324 322 321 318 316 315 314 317 317 317 317 318 319 319 321 322 323 323 322 323 322 322 328 330 325 321 322 321 321 321 322 325 329 331 329 327 325 323 322 320 318 318 318 318 316 315 313 314 316 315 320 326 326 321 317 315 313 313 313 312 312 311 311 311 310 309 309 308 307 307 308 308 309 309 310 311 311 312 312 313 314 314 314 314 314 314 314 313 313 313 312 311 313 315
325 329 325 322 320 318 316 315 314 314 315 315 316 317 318 319 318 319 320 320 322 321 322 320 321 328 329 324 320 321 322 322 322 321 323 328 331 331 329 327 325 323 321 320 319 318 318 318 317 314 311 311 311 313 319 323 322 318 315 315 314 314 313 312 312 312 312 311 311 310 309 308 308 308 307 307 308 308 308 309 310 310 310 312 312 312 313 312 312 312 311 312 311 311 312 316 319
326 329 327 321 318 317 315 315 315 314 315 314 315 317 318 318 316 318 319 319 320 320 321 319 320 326 328 326 323 321 322 322 322 322 322 324 329 333 330 327 326 322 322 321 320 318 318 318 318 317 314 311 310 310 311 315 317 316 315 315 315 315 315 314 314 314 313 313 313 313 312 310 310 310 310 309 309 309 309 309 309 309 309 310 311 311 312 311 311 311 312 312 313 313 315 319 322
326 329 327 322 320 317 316 316 315 314 315 314 315 318 318 316 315 318 320 318 319 320 321 320 321 325 327 328 327 323 322 322 323 324 324 323 327 331 330 326 323 322 322 322 321 320 319 318 318 318 316 313 311 310 310 310 311 313 314 315 316 316 317 316 316 315 315 315 315 315 314 313 313 313 314 313 313 312 312 312 312 312 312 311 312 312 313 312 312 314 315 316 316 317 319 321 323
324 327 324 322 320 318 317 316 316 315 315 315 316 318 317 316 315 318 320 318 319 320 321 322 321 323 326 328 329 325 324 326 326 325 324 322 323 326 326 322 320 321 321 321 320 321 320 318 318 319 318 316 313 311 310 310 310 311 312 314 316 316 316 317 316 316 316 316 316 316 316 316 316 316 317 317 317 316 316 317 317 317 317 316 316 316 317 317 317 318 319 320 320 321 322 323 324
323 324 323 323 322 320 319 317 317 316 316 316 316 318 317 316 316 317 319 317 318 320 322 323 321 322 325 328 330 327 326 329 328 324 321 321 321 322 322 320 319 319 320 320 320 321 320 319 319 319 318 317 315 313 311 311 310 310 311 313 315 316 316 316 316 315 315 315 315 315 316 316 317 318 319 319 320 319 319 320 320 321 321 321 321 321 321 321 321 322 322 323 323 324 324 324 324
322 323 324 325 323 323 323 321 319 317 317 316 317 321 322 320 318 318 318 317 318 320 322 324 323 323 324 328 331 328 327 329 326 320 320 321 321 321 321 320 319 319 319 319 320 320 320 319 319 319 319 318 317 315 314 312 311 310 311 312 314 315 315 315 315 315 314 315 315 315 315 316 317 319 319 320 321 321 321 321 321 322 323 323 323 323 323 323 323 323 323 323 324 324 324 324 324
322 323 324 325 324 325 327 324 320 318 318 315 318 324 327 327 323 319 318 318 319 320 322 323 323 323 325 329 330 329 328 325 321 320 321 321 321 320 319 320 319 319 319 319 319 319 319 319 319 319 319 319 318 317 316 314 314 313 311 312 312 313 314 314 314 314 314 314 315 316 316 317 318 319 320 321 321 322 322 322 322 323 323 323 323 324 324 324 324 324 324 324 324 324 324 324 323
322 322 323 325 325 326 327 325 320 320 318 314 319 324 326 330 327 319 318 318 319 320 320 322 323 324 326 328 327 326 327 322 319 322 324 321 320 320 319 319 319 319 319 319 319 319 319 319 319 319 319 319 319 318 317 316 315 315 314 313 313 314 314 314 314 315 315 315 316 317 318 319 319 320 321 321 322 322 322 323 323 323 324 324 324 324 324 324 324 324 324 324 324 324 324 323 323
322 321 323 325 324 323 323 321 320 321 318 314 318 324 325 328 324 318 316 318 318 319 320 320 322 324 326 327 325 323 326 326 320 320 322 321 320 320 319 319 319 319 319 319 319 319 319 318 319 319 319 319 320 320 319 318 317 316 315 315 316 316 317 317 318 318 318 318 318 319 320 320 321 321 322 322 322 323 323 323 323 324 325 325 324 324 324 324 325 325 324 324 324 323 323 323 323
322 321 322 323 323 323 321 319 319 319 317 315 316 319 323 323 320 317 315 317 318 318 319 320 320 324 326 328 327 325 326 326 321 317 319 319 319 319 319 320 320 320 320 319 319 319 319 319 319 319 319 319 320 320 320 320 319 318 317 317 316 317 318 318 319 320 320 320 321 321 321 321 322 322 322 323 324 325 324 324 324 324 325 325 325 325 325 324 324 325 324 324 323 322 322 322 322
322 321 322 323 322 323 323 319 318 317 316 317 317 316 319 320 320 319 316 315 317 319 319 319 320 321 324 326 327 326 324 321 318 317 318 318 319 319 319 319 319 320 320 320 320 320 320 320 319 319 320 320 320 320 321 321 321 321 319 318 318 317 317 318 318 319 319 320 321 322 322 322 323 323 324 325 326 326 326 326 325 325 326 326 326 325 325 324 324 324 324 323 323 322 321 321 322
323 322 322 323 322 322 324 320 317 317 317 317 318 318 318 319 321 322 319 316 316 318 318 318 319 318 320 322 323 325 324 319 316 317 317 317 318 318 319 319 319 319 319 320 320 320 320 320 320 319 320 320 320 321 320 321 322 322 321 320 319 318 318 318 317 318 318 319 320 322 323 324 324 324 325 326 326 327 327 327 327 326 327 327 326 325 324 324 324 324 323 323 323 322 321 321 321
323 323 322 323 323 323 324 319 315 316 317 317 318 319 319 320 320 322 322 319 317 318 318 318 318 317 318 318 320 321 320 318 318 317 316 317 317 317 318 318 319 319 319 320 320 320 320 320 320 320 319 319 320 321 320 320 320 321 321 321 320 319 318 318 318 317 318 319 320 321 323 324 325 325 325 326 326 327 327 327 327 327 326 327 326 325 325 324 323 323 323 322 322 322 321 322 321
324 323 322 323 323 324 324 320 316 316 317 319 320 320 320 319 320 320 321 320 319 318 318 318 318 318 318 318 318 317 316 317 318 316 315 316 316 316 317 317 318 318 318 319 319 319 319 319 319 319 319 318 318 319 319 318 319 319 319 319 320 319 318 318 317 317 318 318 319 320 321 322 324 325 325 325 326 326 326 327 327 326 326 326 326 326 325 324 323 322 322 322 323 322 321 321 321
325 325 324 323 324 324 322 319 317 316 319 323 323 322 322 321 321 322 322 320 320 319 318 319 318 318 318 318 318 317 316 317 316 315 315 315 315 315 315 316 317 317 318 318 318 318 318 318 319 318 318 317 317 318 319 318 318 318 319 320 320 320 319 317 317 317 318 318 318 319 320 321 322 323 323 323 324 325 325 325 326 326 326 326 326 326 325 324 323 323 323 323 323 323 322 320 320
325 325 325 324 325 326 324 320 318 316 319 321 320 321 322 322 321 322 323 323 321 320 319 318 318 318 318 318 318 318 317 317 316 316 315 315 315 315 315 315 315 316 317 317 317 317 317 318 318 317 317 316 315 316 317 318 318 318 319 319 320 320 320 320 319 318 318 317 318 318 319 320 321 321 321 321 321 323 324 324 324 326 326 326 326 326 325 324 324 324 323 323 323 322 323 321 320
326 325 325 325 325 326 324 320 317 316 317 317 318 322 322 323 324 323 324 324 323 321 319 318 317 317 317 317 317 318 317 317 317 317 316 316 315 315 315 315 315 315 315 315 316 316 316 316 317 317 316 316 316 315 315 316 317 317 318 319 321 321 321 321 321 320 318 317 317 317 318 319 320 321 321 320 320 321 323 324 324 324 325 325 326 326 325 325 324 324 323 323 322 321 322 322 321
326 326 325 325 325 326 323 319 319 321 322 318 318 324 325 324 325 325 324 325 324 322 319 318 318 317 317 317 317 316 316 317 317 317 317 317 316 316 315 315 315 315 315 315 315 315 315 315 316 316 316 316 316 316 316 316 316 316 317 318 319 319 319 319 319 318 317 316 315 316 317 317 318 319 320 320 320 320 321 322 323 323 323 323 324 326 325 326 325 324 323 323 322 321 321 322 322
326 326 325 325 325 326 324 322 323 326 326 318 315 322 324 323 323 325 324 324 324 323 321 319 320 319 317 317 316 316 316 316 317 317 317 317 317 316 316 315 315 315 315 315 314 314 314 315 315 315 315 316 316 316 317 316 316 316 316 316 316 316 316 316 316 316 316 316 316 315 316 316 317 317 318 319 319 319 319 320 321 322 322 321 322 324 325 325 325 324 323 322 322 321 321 323 323
326 325 325 325 324 325 325 324 325 326 324 318 315 318 322 321 321 323 323 323 323 322 322 321 321 321 319 317 317 316 316 316 317 317 318 317 317 317 317 317 316 316 316 315 315 315 314 314 314 314 315 315 315 316 316 316 316 316 316 316 315 315 315 314 315 316 316 317 318 316 315 316 316 316 316 317 317 317 317 318 319 320 320 321 321 322 323 325 325 324 323 322 322 321 321 323 323
323 322 324 324 324 325 325 325 326 323 320 322 320 318 321 322 321 322 321 321 322 322 321 321 321 321 320 318 317 316 316 316 317 317 318 318 318 317 317 317 317 316 316 315 315 315 314 314 314 314 314 314 314 314 315 315 315 315 316 316 316 315 315 314 315 317 316 317 318 317 316 316 316 315 315 315 316 317 317 317 318 319 319 319 320 320 321 324 324 324 324 322 321 321 321 322 321
320 319 322 322 322 322 322 323 323 320 319 323 323 319 321 323 321 321 321 319 321 322 321 322 322 321 320 319 318 317 316 317 317 317 318 318 318 318 318 318 317 316 316 315 315 315 315 314 314 314 314 314 314 314 314 314 314 314 314 315 315 315 315 314 315 317 316 316 317 317 317 318 317 315 314 314 314 315 316 317 318 319 319 318 320 320 320 321 323 324 325 323 322 323 323 322 321
318 318 319 319 318 318 319 319 318 321 324 324 322 321 320 322 322 321 322 320 320 321 321 322 323 321 320 320 319 318 317 317 317 317 317 317 317 318 318 317 317 316 316 316 316 315 315 315 314 314 314 314 314 314 313 314 313 314 314 314 313 313 314 314 315 316 315 315 316 316 316 317 317 315 313 313 314 314 315 317 317 317 318 319 320 320 319 321 325 325 323 321 323 325 324 325 324
318 319 319 320 319 318 319 318 317 324 327 321 319 321 320 321 322 321 323 322 319 320 321 321 322 322 321 320 319 319 319 318 317 317 317 317 316 317 317 317 317 316 316 316 316 315 315 315 315 314 314 314 314 314 314 314 314 314 313 313 313 313 314 314 314 315 316 316 316 316 316 317 317 315 313 313 313 313 315 316 317 318 318 319 319 320 319 321 325 323 319 319 324 326 325 326 326
319 321 321 324 323 322 325 322 319 325 325 315 313 317 318 319 320 320 321 321 318 319 320 320 321 322 321 320 320 319 319 319 318 317 317 316 316 316 316 316 316 316 316 316 316 315 315 316 315 315 315 315 315 314 314 314 314 314 314 314 314 314 315 315 315 315 316 317 317 316 316 316 316 315 314 313 312 313 314 315 316 318 318 318 318 319 319 320 320 319 318 320 323 326 325 327 327
321 322 324 326 325 325 329 325 322 325 322 313 312 315 317 318 318 319 319 320 321 319 319 319 318 319 319 319 319 319 318 318 318 317 317 316 316 316 316 316 316 315 316 316 315 315 315 315 315 315 315 314 314 314 314 314 314 314 314 313 314 315 315 316 317 317 317 318 319 317 315 315 315 314 313 312 312 313 313 315 317 318 319 319 319 320 319 319 318 318 319 319 320 321 322 326 327
321 322 323 325 324 326 329 327 325 326 319 313 313 317 320 320 318 317 316 317 318 317 317 316 316 316 316 316 316 315 315 315 315 315 315 316 316 316 315 315 315 315 315 315 315 314 314 314 313 313 314 313 313 313 314 314 314 313 313 312 313 316 317 315 316 319 319 320 321 319 316 316 315 314 314 312 312 314 314 315 318 319 320 321 321 321 321 320 319 318 319 319 319 319 319 323 324
318 320 323 325 323 323 324 321 320 321 318 315 315 316 319 319 318 317 316 316 316 315 315 314 315 315 314 314 313 312 312 312 313 313 314 314 314 314 314 314 314 314 314 314 313 313 313 313 313 313 313 313 313 313 313 313 313 313 313 311 312 315 317 314 315 319 320 322 323 322 319 318 317 316 315 313 312 314 314 316 318 320 322 323 323 323 323 322 320 319 319 318 318 318 319 320 319
317 319 323 322 320 321 322 318 314 316 321 321 316 315 317 317 319 319 318 318 316 316 315 314 315 315 315 315 314 313 312 311 312 312 313 312 312 313 313 313 314 313 313 313 313 313 313 313 313 313 313 313 312 313 313 313 313 313 313 312 311 312 314 313 314 318 321 323 324 323 321 321 320 317 317 315 313 314 314 316 319 321 324 325 325 325 325 324 322 320 319 318 318 319 320 319 318
317 320 321 318 318 319 319 320 319 318 322 323 318 318 318 317 319 320 319 319 317 316 315 315 315 314 315 316 315 314 313 312 312 312 313 313 313 314 314 314 314 313 313 313 313 313 313 313 313 313 313 313 312 313 312 313 313 313 313 312 311 311 311 311 313 316 320 322 322 322 322 322 320 318 317 316 314 315 316 318 320 323 325 327 327 327 326 325 323 322 320 319 319 320 320 320 319
316 319 318 318 321 321 319 321 323 322 322 323 320 318 317 317 318 318 318 319 318 317 317 316 315 314 315 316 315 315 313 313 313 313 313 313 313 314 314 314 314 313 313 313 313 313 313 313 313 313 313 313 313 313 313 313 313 313 313 312 312 311 310 311 313 316 318 319 320 320 320 320 318 316 316 316 315 316 318 320 322 324 327 328 328 326 326 325 324 323 321 320 320 321 321 321 319
313 316 317 319 321 322 321 321 322 322 322 322 321 318 317 318 318 318 318 318 317 318 318 317 315 315 315 315 315 316 315 314 313 313 313 312 312 313 313 313 313 312 313 312 312 312 312 313 313 313 313 312 312 312 312 312 313 312 313 312 312 311 310 311 313 315 316 316 317 318 318 317 316 316 316 316 316 317 320 322 324 326 327 328 327 326 326 326 325 324 322 321 321 322 322 320 318
313 315 319 319 319 318 319 322 322 321 320 321 322 320 318 316 316 317 318 318 318 318 318 319 318 316 315 315 316 316 315 313 312 312 312 312 312 312 311 312 312 312 312 312 312 312 312 312 312 312 312 312 312 312 312 312 312 312 312 312 312 311 310 311 312 313 313 314 315 316 317 316 316 317 316 316 318 319 322 324 325 327 328 327 327 326 326 327 326 325 323 322 323 323 322 320 320
315 316 318 319 319 317 319 323 321 319 318 318 319 320 319 315 314 315 316 316 316 316 317 318 317 316 316 315 315 313 312 311 311 312 312 311 311 311 311 311 312 312 312 312 312 312 312 312 312 312 312 312 312 312 312 312 311 312 312 312 312 312 311 311 311 311 311 312 314 315 315 315 316 317 318 319 321 321 323 325 327 327 327 327 326 325 326 327 327 326 324 324 324 323 322 322 322
Wind_Speed
6 6 6 8 9 10 8 5 5 3 4 3 2 1 4 4 2 4 6 5 5 6 5 7 8 5 1 3 4 7 10 9 5 2 4 8 13 12 10 12 11 13 13 10 10 11 10 10 9 9 12 13 11 8 7 7 9 10 8 7 6 6 9 11 11 12 12 12 15 15 14 13 15 15 14 14 15 15 14 15 16 17 19 18 17 16 15 16 16 17 17 17 17 17 17 17 17
5 6 6 7 7 8 6 3 5 2 4 2 3 1 6 5 3 5 6 4 6 8 7 8 7 4 4 4 2 2 8 13 10 10 10 12 14 11 12 13 12 14 13 10 11 9 8 10 9 8 10 12 11 9 7 7 10 11 9 8 7 8 11 11 11 12 12 12 14 15 14 14 15 14 14 15 15 15 14 15 17 18 19 18 16 15 15 16 16 16 16 16 16 16 16 17 18
4 5 5 7 5 6 5 4 5 3 3 1 4 4 5 4 4 6 7 7 10 10 9 9 7 4 1 2 1 2 6 10 10 12 13 13 13 13 14 14 14 14 12 11 10 8 8 10 10 8 10 12 12 10 8 8 9 12 10 8 7 10 11 10 11 12 13 12 14 15 14 14 14 14 14 15 15 14 15 16 18 20 19 17 16 14 14 15 15 16 15 16 16 16 16 17 19
5 6 5 7 7 5 5 5 4 5 3 1 3 6 4 4 5 9 10 9 10 10 9 9 6 3 2 2 3 3 7 8 7 8 13 12 9 15 17 16 15 14 13 13 10 8 8 9 10 9 10 11 11 10 8 8 8 10 10 8 7 11 11 11 13 13 13 12 14 15 14 13 13 14 14 15 14 14 15 17 19 20 18 16 15 14 14 15 15 16 15 15 15 16 17 18 19
6 7 5 6 7 2 2 3 3 5 2 3 2 5 4 3 7 9 10 9 9 8 8 9 5 3 2 4 3 3 6 6 6 8 13 10 11 17 17 16 15 13 14 14 10 8 8 9 10 10 10 9 9 9 7 7 9 10 9 7 7 10 10 12 14 13 12 12 13 14 13 12 13 14 14 16 16 14 15 16 18 19 18 16 14 14 15 15 16 16 15 15 16 17 18 18 19
6 7 6 5 6 2 3 4 4 4 2 4 3 4 4 4 8 10 10 9 7 5 6 7 3 4 4 2 2 4 5 5 6 8 10 11 16 17 16 17 15 12 14 14 10 7 8 11 11 10 9 7 7 8 7 9 10 10 8 7 7 9 10 12 13 13 14 13 13 13 13 13 13 14 14 16 16 14 14 15 17 17 17 16 15 15 15 15 15 15 15 16 16 17 17 18 18
5 6 4 4 4 2 5 4 4 2 4 3 4 4 3 6 8 11 11 8 6 5 5 6 3 3 5 5 3 4 6 7 6 8 10 13 18 17 16 16 14 13 13 13 10 8 10 12 12 10 9 8 7 7 9 11 11 10 8 7 8 9 10 12 12 13 15 14 12 12 13 14 13 14 15 15 15 14 13 14 16 16 16 16 16 16 15 15 15 14 15 16 16 16 16 16 16
4 5 4 5 4 3 5 4 3 1 4 3 3 4 2 6 9 10 10 7 7 7 8 7 5 4 5 5 3 4 7 8 7 11 13 15 17 16 17 16 14 14 13 13 9 9 10 11 12 10 9 8 7 9 11 12 11 11 10 9 8 8 10 11 12 13 14 14 14 13 14 14 14 14 15 15 14 14 14 14 14 15 16 16 15 15 15 14 14 14 15 15 15 15 15 15 14
4 5 4 5 5 4 5 4 2 0 3 3 3 3 2 5 8 8 8 6 6 8 9 9 8 4 6 7 5 6 7 8 9 14 16 16 16 15 16 15 13 13 13 13 9 9 10 10 11 10 9 8 8 11 13 12 11 11 10 10 9 9 9 10 11 12 13 14 14 14 14 15 15 15 15 14 14 14 14 14 14 14 15 15 14 14 14 14 14 14 14 14 14 13 14 14 14
6 6 5 4 5 4 5 4 2 2 3 3 3 4 3 6 7 8 8 6 6 7 8 8 8 4 3 7 7 5 7 9 10 14 18 17 16 15 16 15 12 12 13 12 8 9 10 10 10 10 9 8 9 10 12 12 12 11 10 10 9 8 8 8 10 11 13 14 14 14 15 14 15 15 14 14 13 13 13 13 13 13 14 14 14 13 13 13 13 13 12 12 12 12 12 13 14
7 6 4 4 5 5 5 4 3 3 4 4 3 5 5 8 8 7 8 6 7 7 9 8 7 6 4 4 6 5 8 9 10 15 20 18 16 15 16 16 14 12 12 11 9 8 9 10 10 9 10 8 8 9 11 11 11 11 10 10 9 8 7 8 9 10 13 14 14 14 15 14 14 14 14 13 13 13 12 12 13 13 13 13 13 12 12 12 11 11 11 11 11 11 12 12 13
7 5 4 5 6 5 4 1 3 3 4 5 5 7 6 10 10 8 9 6 7 7 9 10 4 6 8 3 6 6 8 9 11 17 21 18 17 16 16 16 15 14 13 11 9 8 8 9 9 9 10 9 8 8 10 10 9 9 9 9 9 9 8 8 9 9 11 13 14 14 14 14 14 14 13 12 12 12 12 12 12 12 12 12 12 11 11 11 10 10 10 10 10 11 11 12 12
8 5 5 5 5 5 2 1 2 2 4 5 5 7 7 11 11 9 9 7 8 7 8 11 4 4 7 3 6 7 8 11 13 19 22 19 18 17 15 15 15 14 14 11 9 9 8 8 9 9 10 9 8 8 9 9 10 9 8 9 9 9 9 8 9 9 11 13 13 13 14 14 13 13 12 11 11 11 11 10 11 11 11 11 11 10 10 10 9 9 9 9 9 10 10 11 11
9 6 6 5 4 5 3 3 2 3 4 6 8 7 9 10 10 9 8 8 8 5 7 11 6 4 5 4 7 10 11 14 15 21 24 21 20 18 16 15 15 15 14 11 9 10 9 8 8 9 10 9 9 9 10 10 10 10 9 10 9 9 9 8 9 10 11 11 12 13 14 13 13 12 11 11 11 10 10 9 9 10 10 9 9 9 9 9 9 8 8 8 8 8 9 9 10
9 6 6 5 5 5 5 5 2 5 3 8 6 6 9 6 7 7 7 6 5 5 7 10 9 3 2 3 6 11 14 15 18 23 25 23 21 19 18 16 15 14 14 13 10 10 10 9 8 8 9 10 10 9 10 11 11 11 10 11 10 9 9 9 9 10 11 11 12 14 13 13 12 12 11 10 10 10 10 9 9 9 8 8 8 8 7 7 7 7 7 7 6 6 7 7 7
8 5 5 6 6 6 6 6 3 5 3 8 6 7 9 6 7 7 7 4 5 8 7 6 11 4 3 2 6 9 14 15 20 25 26 24 22 20 18 17 15 14 15 14 11 10 11 11 10 9 8 9 10 9 10 11 12 12 11 12 11 10 10 10 9 10 11 11 12 13 13 12 12 12 11 10 10 10 10 9 8 8 7 7 7 6 6 6 5 5 5 5 5 4 5 5 6
7 6 6 6 7 7 6 8 6 3 5 8 7 8 8 7 7 7 8 7 3 7 8 4 10 8 0 1 6 9 13 15 21 27 28 25 23 21 19 18 17 16 16 15 11 10 11 12 12 10 9 9 10 10 10 12 12 12 12 12 12 12 11 11 10 9 11 12 12 13 12 12 12 12 11 11 10 9 9 9 8 7 6 6 6 6 5 5 5 4 4 4 3 3 3 3 4
6 6 7 7 8 7 6 8 5 2 5 7 7 8 7 7 9 7 7 9 6 6 8 7 9 10 8 4 6 10 12 16 23 28 28 27 25 24 22 21 19 18 18 16 13 11 11 12 12 11 11 11 10 11 11 12 12 12 12 12 12 12 12 11 11 10 11 12 12 13 11 11 11 12 12 11 10 9 9 8 8 7 7 6 6 5 4 4 4 3 3 2 2 2 2 2 3
8 6 7 8 7 3 3 4 3 2 4 7 7 8 7 5 10 10 7 10 11 9 9 11 9 10 12 9 8 11 12 17 24 28 28 28 27 25 24 23 20 19 19 18 15 13 12 11 11 12 13 14 13 12 11 11 13 13 12 12 12 12 12 12 12 12 12 12 13 13 9 9 11 12 12 11 10 9 9 8 8 7 7 6 5 5 4 3 3 3 2 1 0 1 2 3 4
10 7 6 9 6 3 4 3 4 4 4 6 7 7 7 5 8 10 9 10 12 11 10 12 12 13 13 13 13 11 12 19 25 28 28 28 27 26 25 24 22 21 20 19 16 15 14 12 12 12 12 14 14 13 12 11 13 14 11 12 13 12 13 12 12 12 13 13 14 12 8 9 12 11 12 11 10 10 10 9 9 8 7 6 6 5 4 4 4 3 3 2 2 1 2 3 4
9 8 8 6 4 4 5 5 5 5 4 5 7 7 7 7 8 9 9 9 9 12 13 13 13 14 16 16 16 13 12 19 25 28 28 28 27 26 25 24 23 21 20 20 18 16 16 15 13 13 12 13 13 13 13 10 12 15 12 13 14 13 14 13 13 12 13 13 13 12 9 10 12 11 11 11 11 10 10 10 9 9 8 7 6 6 6 5 5 5 4 4 2 2 2 3 4
8 10 13 7 3 5 6 7 6 7 4 4 7 6 6 8 8 10 11 10 4 3 9 12 11 12 17 18 18 16 14 19 25 28 29 29 28 27 26 25 23 22 22 21 20 18 16 16 15 14 14 15 13 12 11 10 14 16 14 16 15 15 15 14 14 13 13 13 13 12 11 11 11 10 11 11 11 10 10 10 9 9 8 7 7 7 6 6 6 5 5 4 3 2 3 4 5
8 9 14 10 6 5 6 7 6 7 5 5 6 4 6 7 8 11 14 14 3 3 2 7 7 10 16 17 18 18 16 19 22 26 28 29 28 27 27 26 24 24 23 21 21 19 17 16 16 16 15 16 16 13 9 11 16 17 17 18 17 17 17 16 15 14 14 13 13 13 12 11 11 10 10 10 11 11 11 10 9 9 8 8 7 7 6 6 6 5 5 4 3 4 4 4 5
11 7 8 10 7 3 4 5 5 6 4 4 3 3 6 8 6 7 13 16 10 8 6 5 5 10 15 16 18 19 18 18 19 22 25 27 27 26 26 25 26 26 24 22 22 21 20 18 16 17 17 16 17 16 11 11 14 17 19 20 19 18 18 17 16 15 15 14 14 13 13 12 12 11 11 11 11 11 11 10 10 9 9 8 7 7 7 6 6 6 6 7 6 6 7 7 7
14 9 5 7 6 4 4 3 4 5 5 3 3 4 7 6 3 4 11 14 11 13 13 9 7 10 14 16 17 19 20 19 18 21 24 25 24 24 25 25 27 28 25 23 23 23 21 19 18 17 17 17 18 17 16 13 13 17 19 20 19 18 18 18 17 17 16 15 15 14 14 13 13 12 12 12 11 11 11 10 10 10 9 9 8 8 8 7 7 6 7 7 7 7 9 9 9
12 13 8 7 8 6 4 4 5 5 5 5 5 7 7 5 4 7 14 13 10 13 15 13 10 11 13 15 17 19 20 20 20 22 22 23 23 23 25 28 30 29 26 26 25 23 21 20 20 19 18 18 18 19 19 17 16 18 20 19 19 18 18 18 18 18 17 16 16 15 15 14 14 13 13 12 12 11 11 10 10 10 10 10 10 9 9 8 8 8 7 7 7 7 8 10 10
5 13 10 8 9 8 6 6 7 6 5 7 8 8 6 6 4 7 10 11 10 12 13 13 13 13 13 14 16 17 19 21 21 21 22 23 24 24 26 29 30 29 27 28 27 25 23 22 22 21 19 19 20 20 21 20 20 20 20 20 20 18 18 18 18 18 18 18 17 16 16 15 15 14 14 13 12 12 11 11 11 10 10 10 11 11 10 9 9 9 9 8 9 9 9 11 11
2 9 8 9 10 8 9 8 8 6 6 9 9 7 5 6 7 9 7 9 10 11 12 13 14 14 13 14 15 17 18 20 21 22 23 24 24 24 25 26 26 28 29 28 27 26 24 23 23 22 22 21 20 21 21 21 21 22 21 21 21 20 19 19 19 18 18 18 18 18 17 17 16 15 15 14 13 13 13 12 12 11 11 11 11 11 11 11 11 11 10 10 10 10 10 12 12
4 8 7 10 10 9 13 13 11 10 7 9 6 7 8 9 11 13 10 9 8 10 13 14 15 15 14 14 15 17 18 19 22 23 23 24 24 23 23 23 23 26 29 28 27 27 26 24 24 24 24 23 22 21 21 21 21 22 22 22 22 21 20 20 20 19 18 18 19 19 18 18 17 16 16 15 14 14 14 13 13 12 12 12 12 12 12 11 12 12 12 11 11 12 12 13 12
7 9 8 8 8 9 15 16 12 11 8 10 7 7 10 12 17 18 17 16 11 10 13 13 15 15 15 15 16 17 18 20 22 22 22 24 24 23 22 22 21 24 27 28 28 28 27 26 26 25 25 25 24 23 22 21 22 22 22 22 23 23 22 21 20 19 19 19 19 19 19 18 18 17 16 16 15 15 15 15 14 13 13 13 13 13 13 13 14 14 13 13 12 12 12 10 9
8 8 7 6 7 8 14 17 14 11 7 11 9 8 8 10 16 21 21 19 14 13 13 13 14 15 16 17 17 18 19 22 23 21 22 24 24 22 21 21 21 22 25 27 28 28 28 28 28 27 26 26 25 24 23 22 22 23 22 22 23 23 23 22 21 20 20 20 20 20 19 19 18 18 17 17 17 16 16 15 14 14 14 15 15 15 15 14 14 13 12 10 9 9 9 9 10
7 7 7 7 7 5 11 16 17 12 7 12 11 7 9 12 10 16 18 17 15 14 14 13 15 16 17 18 19 20 20 23 24 23 24 25 25 23 22 22 22 22 23 24 26 27 29 29 28 28 27 27 26 25 24 24 23 23 23 22 23 23 22 22 21 21 21 21 21 20 20 20 19 19 18 18 18 18 18 16 16 15 15 16 15 15 16 15 12 11 10 9 8 8 9 10 11
8 8 7 8 9 5 7 12 17 15 8 13 14 8 7 8 7 12 14 15 13 14 14 14 16 16 17 17 19 21 19 21 24 25 26 27 26 24 23 23 24 23 22 23 24 26 28 29 29 29 29 28 27 26 25 26 25 25 24 24 23 23 23 23 22 22 22 22 22 22 22 21 21 20 20 20 19 20 20 18 18 16 15 16 14 14 15 13 11 11 11 11 12 11 11 12 12
8 8 7 8 11 9 6 7 12 15 9 11 14 11 10 6 6 10 11 13 13 14 15 15 15 14 15 15 16 19 20 21 24 26 26 27 26 24 25 26 26 25 24 24 24 24 25 27 28 29 31 30 29 29 28 27 27 27 27 26 26 26 25 24 24 24 24 24 24 24 24 23 23 22 22 21 20 21 20 19 19 17 16 16 14 14 15 13 13 13 13 13 15 15 13 13 13
10 9 7 7 11 12 9 5 9 15 11 11 12 12 15 14 9 9 11 13 12 13 13 14 14 13 13 13 15 17 20 24 25 24 24 25 25 25 26 28 28 27 26 25 25 25 25 26 28 29 31 32 31 31 30 29 29 29 29 29 29 29 28 28 28 28 27 27 27 26 26 26 25 23 23 23 21 21 21 21 20 18 17 17 16 17 18 17 17 17 16 15 15 16 14 14 14
12 11 10 9 8 11 9 4 7 12 10 11 13 12 15 16 16 15 13 14 13 14 13 13 12 12 13 14 15 16 20 25 25 23 23 23 24 26 28 29 29 28 27 27 27 27 27 27 28 29 32 33 32 33 32 32 32 32 32 32 32 32 31 31 31 31 30 30 29 28 28 27 27 26 25 25 24 23 22 23 23 21 19 18 20 21 20 18 17 16 16 16 15 16 16 15 15
11 12 12 11 7 8 9 6 7 8 7 10 14 14 16 15 14 16 16 15 14 16 16 14 13 13 14 14 15 17 20 23 22 23 23 23 25 26 28 30 30 29 29 29 29 29 28 28 30 30 31 33 34 35 35 35 35 34 34 35 35 35 34 34 34 34 33 33 32 30 30 30 29 29 28 28 27 26 25 25 25 25 22 21 22 22 20 18 16 15 15 16 16 16 16 14 14
9 11 10 10 9 6 5 7 7 6 5 8 11 14 16 16 14 15 16 15 16 18 18 17 17 16 16 16 18 20 21 20 21 22 23 24 27 28 29 30 31 31 31 31 30 29 29 29 31 31 31 32 34 35 36 37 36 35 35 36 36 36 35 36 35 35 35 34 33 32 32 32 32 31 31 30 29 28 28 27 27 27 25 24 24 22 21 19 17 17 17 16 16 15 14 13 13
9 9 8 8 8 4 4 7 7 6 4 7 9 12 13 14 14 15 17 18 19 20 20 20 19 18 18 18 19 22 23 22 22 22 22 23 26 28 29 30 31 32 32 31 30 29 30 31 32 32 31 32 33 35 36 37 36 35 36 36 35 35 36 36 35 35 35 35 34 34 34 34 34 34 33 32 30 31 31 29 29 28 27 26 26 24 22 21 19 18 18 17 15 14 15 14 13
8 8 8 7 8 7 5 6 7 6 5 5 7 9 11 12 13 13 18 22 22 21 21 21 19 19 20 19 19 24 27 27 25 23 23 23 24 26 28 30 31 32 33 32 32 31 32 33 33 32 30 31 32 34 35 36 36 35 35 36 35 35 35 35 35 35 37 38 37 36 36 37 36 35 35 34 32 32 32 32 31 30 30 29 27 25 23 22 20 20 20 20 18 16 15 14 12
10 10 9 7 8 8 3 4 5 4 5 5 5 8 9 12 14 13 15 20 21 22 22 21 20 20 21 21 21 24 27 30 29 27 26 26 26 25 25 28 30 31 33 33 33 33 32 32 32 32 31 31 32 33 33 34 35 36 36 36 37 37 37 37 38 39 40 40 39 39 39 38 37 36 36 36 35 35 34 34 32 32 33 31 28 26 25 23 22 23 23 23 22 19 16 14 13
10 12 12 9 8 8 4 4 3 3 5 5 4 8 7 9 15 14 12 14 17 20 22 22 23 23 22 23 25 27 30 33 32 30 30 29 27 26 24 25 27 29 32 33 33 32 31 31 31 31 32 32 32 32 32 32 34 36 37 37 38 39 40 41 42 42 42 41 41 40 40 39 39 38 38 38 38 38 37 35 33 33 34 33 30 28 26 25 25 25 24 23 22 20 17 16 15
8 10 13 11 8 8 6 4 3 5 5 3 4 8 6 5 10 10 8 10 13 16 18 22 27 26 24 25 28 32 35 36 36 33 33 31 29 29 27 25 26 27 29 31 32 32 31 31 32 33 33 33 33 33 34 34 34 35 37 38 38 39 40 42 42 42 42 41 41 41 40 39 39 39 39 39 39 39 38 36 34 34 35 34 32 30 28 27 26 26 25 23 21 20 20 19 17
4 8 13 12 8 7 6 4 4 6 4 0 5 7 8 8 9 9 9 10 11 13 14 18 25 27 26 25 29 36 39 38 37 36 36 34 32 31 29 26 26 25 26 28 30 32 32 32 34 34 34 33 33 34 35 35 35 35 36 37 38 38 39 40 41 41 42 41 40 40 40 39 39 39 39 39 39 39 38 36 34 34 35 34 34 33 31 28 27 26 26 23 22 21 22 22 20
1 6 10 11 9 7 4 4 5 4 4 5 7 5 6 9 6 9 13 14 14 15 16 17 20 24 27 27 28 34 39 39 38 38 38 36 34 33 30 27 27 26 26 26 27 30 32 33 34 34 33 32 32 33 34 34 34 34 36 37 38 39 39 39 39 39 41 41 40 40 40 39 39 39 39 39 38 38 37 35 34 34 35 35 35 33 31 30 28 27 26 24 22 20 21 22 22
2 5 6 6 4 3 3 3 4 2 4 8 7 6 6 8 5 7 10 12 14 15 15 16 20 24 27 29 27 28 35 39 38 38 38 37 34 34 32 30 28 26 25 25 25 27 30 32 33 32 31 30 30 32 33 34 35 35 36 38 39 39 39 40 40 38 39 40 39 39 39 38 38 40 40 39 38 37 36 35 34 34 35 35 34 32 31 30 28 28 28 26 23 21 21 22 22
8 7 7 7 4 4 3 1 1 3 8 8 8 11 8 7 5 6 8 10 10 11 12 12 18 23 25 27 28 28 34 40 39 38 37 36 34 34 34 32 29 27 25 26 27 27 28 29 31 31 30 30 31 32 33 35 36 37 37 38 38 39 40 40 41 40 40 39 38 37 37 35 36 39 40 38 37 36 35 35 35 34 35 35 34 32 32 31 29 31 31 28 27 25 24 25 24
10 7 6 6 3 3 2 2 3 5 8 2 3 10 11 8 4 3 7 9 6 8 12 11 13 18 21 25 27 28 32 37 39 39 38 36 34 33 33 32 30 28 26 27 28 28 28 28 29 30 31 31 33 34 35 35 37 38 38 39 40 40 41 42 42 42 41 39 38 37 36 35 35 37 38 37 37 36 35 36 35 34 34 35 33 32 31 30 31 32 31 29 29 29 28 28 27
9 7 8 7 4 4 4 4 4 7 6 2 2 3 8 12 9 7 11 11 7 8 11 11 11 14 16 18 21 23 26 30 33 36 37 36 34 33 32 32 31 29 27 27 27 27 28 29 29 31 31 32 34 35 36 37 38 40 40 41 42 42 43 43 42 43 42 41 40 39 38 36 36 36 36 35 35 35 36 36 35 35 35 34 33 31 30 29 30 30 29 29 30 32 31 31 30
12 10 10 9 6 5 6 6 4 7 4 3 4 2 6 10 9 11 16 17 16 13 12 13 12 11 10 9 11 15 19 24 27 31 33 33 33 31 29 29 30 29 28 27 26 26 27 27 29 30 30 31 34 35 37 39 40 42 42 41 42 43 44 44 43 42 42 40 38 40 41 40 39 38 37 36 33 34 35 35 35 34 33 32 31 30 29 28 28 29 28 29 31 32 31 32 32
11 9 8 8 5 5 6 7 7 6 2 3 5 4 6 6 1 3 8 11 12 11 9 10 11 11 10 10 10 11 13 17 21 25 28 29 30 29 27 26 26 27 27 26 26 25 26 26 26 27 27 28 30 32 34 36 38 41 42 43 42 41 42 44 44 40 39 37 35 37 41 41 41 40 39 37 34 34 35 33 33 33 31 31 30 30 29 28 28 29 29 30 30 31 30 32 32
5 4 6 7 4 5 4 2 4 3 0 3 6 4 6 5 6 8 8 7 9 10 10 11 14 14 12 13 15 14 12 14 17 20 21 22 23 23 22 21 22 23 24 24 24 24 25 25 25 25 25 26 28 30 31 32 34 37 39 41 42 40 39 42 43 41 38 34 32 35 38 38 39 39 38 38 36 34 33 31 30 31 30 30 30 30 29 29 29 30 30 31 30 30 30 31 32
4 4 7 4 1 3 5 2 2 1 5 5 6 6 7 6 11 13 14 13 10 10 11 12 15 15 13 12 13 13 12 10 12 15 16 15 16 16 17 18 19 21 22 23 24 24 25 26 26 26 26 27 28 30 31 31 32 33 34 37 40 40 40 42 42 40 35 31 30 33 35 34 35 37 37 37 35 33 31 30 29 29 29 30 30 30 29 29 30 30 31 32 31 30 30 30 30
6 7 7 4 4 2 3 4 4 4 7 6 7 9 7 5 6 4 10 15 13 10 10 10 12 13 13 10 8 11 12 9 8 10 13 14 15 16 17 18 19 20 21 22 23 24 25 25 25 25 25 25 26 27 28 28 29 30 31 33 36 39 41 43 42 40 35 32 32 33 34 33 35 35 35 35 34 31 30 29 28 29 29 28 29 29 29 29 30 31 32 32 31 30 29 29 29
2 5 8 6 2 3 4 5 6 7 7 6 7 10 7 7 7 2 4 11 12 11 10 8 7 9 11 9 7 9 13 12 10 10 12 14 16 17 18 19 20 21 21 21 22 23 23 21 21 20 20 21 22 23 24 24 25 26 26 28 31 35 39 41 40 38 35 34 34 34 34 35 37 36 34 34 31 29 29 29 28 28 27 27 28 29 29 29 30 32 32 33 32 30 29 28 28
2 4 9 7 4 4 6 6 4 5 6 5 5 6 5 7 9 9 10 10 10 11 11 9 7 7 8 8 8 10 13 14 12 11 11 12 14 15 16 17 18 18 19 19 20 20 19 18 18 17 18 19 20 21 22 22 23 23 23 24 26 29 33 35 36 35 34 34 34 35 35 36 37 36 33 32 30 28 29 29 28 28 28 28 29 29 29 29 31 32 33 33 32 30 29 28 27
5 7 11 9 4 1 4 7 6 5 5 6 5 5 5 2 2 7 12 11 8 8 8 7 6 5 5 4 5 8 10 11 10 11 11 10 12 12 12 13 13 14 15 16 17 17 16 16 16 17 18 19 19 20 21 22 22 23 23 23 23 25 27 30 32 33 33 34 33 34 35 36 35 34 33 31 29 28 28 29 28 29 29 29 30 31 30 31 32 33 33 32 31 29 28 27 26
9 9 9 10 8 4 4 8 8 5 5 4 4 6 4 2 1 3 4 4 2 2 2 1 4 2 2 1 4 4 5 7 9 10 10 10 10 10 9 10 10 10 11 12 13 13 14 14 15 16 16 17 18 18 19 20 21 22 23 22 22 23 24 27 29 30 32 32 33 33 33 34 33 32 31 30 29 28 28 28 28 29 30 30 31 31 31 32 32 32 32 30 29 28 28 26 26
Wind_Direction
305 306 316 318 326 324 301 283 273 213 250 266 104 144 114 79 91 135 126 137 138 111 91 111 120 120 78 2 26 37 33 27 15 16 112 120 137 150 154 152 152 152 150 136 143 152 150 153 151 139 140 143 136 130 131 128 121 115 115 114 107 101 95 91 91 90 86 86 93 93 91 91 88 88 88 91 93 92 94 98 101 100 95 90 90 91 91 91 89 88 86 85 82 76 70 65 62
307 311 315 318 324 313 297 271 279 219 237 232 123 65 100 119 182 153 136 133 112 113 128 126 128 120 18 1 4 18 57 46 46 83 110 132 135 149 158 151 147 152 156 141 130 138 157 160 157 143 140 148 141 133 136 140 126 126 129 116 106 102 100 99 100 97 92 89 95 98 95 94 94 96 95 93 93 92 93 97 102 100 93 90 90 91 92 92 92 90 86 81 75 69 64 61 61
305 322 321 312 304 284 286 245 262 266 254 234 108 97 116 159 168 125 111 94 105 122 136 132 137 135 40 163 127 14 80 61 71 102 120 130 138 155 157 150 147 153 154 136 128 142 167 163 161 150 140 148 149 146 147 150 139 140 136 116 111 106 106 107 105 100 97 97 99 102 99 99 101 101 99 97 98 99 98 99 103 100 93 93 93 94 95 94 92 88 82 76 69 65 62 62 63
303 315 319 302 279 254 265 242 263 281 274 348 96 118 141 163 123 97 95 97 120 133 140 149 146 160 278 50 41 48 95 79 81 120 128 125 159 166 158 154 149 157 151 131 135 157 180 170 165 160 145 150 157 159 157 152 142 141 135 119 112 112 114 110 106 103 101 102 104 106 105 105 105 102 102 99 96 97 100 102 104 102 95 94 95 97 97 94 91 85 78 72 68 66 66 66 68
308 311 313 299 278 274 283 268 271 268 312 8 57 122 145 135 117 103 102 110 134 146 152 171 147 150 238 18 9 41 87 90 97 126 127 137 176 170 162 154 149 160 151 132 139 164 190 180 169 166 154 156 165 171 166 143 136 134 130 112 101 112 117 109 109 112 109 109 110 111 112 111 110 106 103 99 94 92 96 101 105 106 102 99 98 99 96 91 87 83 77 73 71 70 70 71 70
312 305 300 290 281 311 265 250 244 239 30 3 10 101 144 123 122 123 118 115 135 155 163 185 150 136 168 91 47 56 106 113 99 133 141 161 169 166 162 151 149 156 148 137 143 164 179 173 169 166 160 163 166 175 164 137 138 134 119 101 100 114 115 110 112 116 114 109 109 112 117 115 112 110 106 103 103 101 98 100 104 108 107 104 101 98 95 90 86 82 79 76 75 73 72 71 69
299 283 272 265 249 247 252 248 254 230 65 14 15 64 132 127 131 137 138 137 145 170 186 187 169 160 137 127 131 103 148 126 106 162 168 168 162 163 159 147 149 154 151 141 142 163 164 165 168 165 163 167 159 164 160 143 139 129 112 104 113 118 115 118 115 118 119 116 117 119 119 115 112 113 110 106 105 105 101 102 103 103 104 103 101 98 96 92 89 85 82 79 76 74 71 69 67
285 278 275 274 237 206 256 256 261 295 74 58 51 43 63 131 147 156 162 165 161 174 189 181 199 218 119 125 139 127 170 149 150 182 175 165 160 164 157 146 151 157 155 142 148 172 162 163 166 164 165 167 154 150 152 144 138 131 123 120 127 130 124 124 121 123 128 130 133 129 124 120 116 114 110 107 103 102 100 100 99 99 102 102 101 99 97 95 92 86 82 79 75 72 69 67 66
265 261 254 264 255 223 247 249 230 193 116 120 108 85 72 159 166 170 171 166 157 170 181 179 205 227 119 132 103 113 185 180 175 181 173 164 161 167 156 147 155 162 160 148 159 174 162 165 165 165 168 164 151 150 152 143 138 136 135 138 139 142 138 131 129 130 134 137 136 131 128 123 118 113 109 106 103 103 102 101 100 101 104 103 103 100 99 96 92 87 82 78 74 72 68 67 65
238 238 253 254 257 244 231 234 194 162 144 134 118 125 156 182 183 183 176 165 160 165 163 170 202 230 130 133 113 131 195 192 186 175 169 165 162 168 157 152 160 163 166 159 157 162 161 167 167 166 168 167 154 155 159 149 143 142 145 154 150 148 148 144 139 136 136 139 137 132 128 123 117 113 111 109 107 108 106 106 106 106 107 106 105 103 102 97 92 88 82 79 74 72 68 65 64
235 218 251 257 244 244 234 219 175 165 141 149 155 145 168 181 188 194 182 166 167 163 147 165 200 212 212 122 123 181 205 188 181 169 166 168 163 167 162 157 163 163 169 164 151 157 162 167 171 168 170 175 161 156 165 163 159 153 154 161 156 150 148 146 145 140 139 139 138 132 127 122 117 116 115 114 113 113 113 114 115 113 113 111 110 107 104 100 95 90 84 81 75 71 67 63 60
241 210 211 240 240 246 254 246 180 162 154 182 168 148 166 177 187 195 188 174 175 180 168 183 186 189 211 153 143 202 210 181 171 172 169 168 165 167 168 163 163 167 172 162 148 162 171 171 172 175 176 179 171 159 166 177 178 165 161 163 155 148 140 136 140 138 138 140 140 134 128 124 121 121 120 120 120 119 118 118 119 119 117 115 113 110 106 102 97 93 87 82 76 71 65 60 57
237 222 212 236 253 263 284 297 194 172 198 187 133 137 165 177 188 192 191 183 184 195 179 185 172 192 211 131 152 204 208 178 172 177 170 168 170 168 168 167 166 171 175 163 155 167 173 175 173 179 177 178 179 165 162 177 182 170 164 164 156 150 145 139 140 139 142 147 145 137 131 129 128 127 126 128 126 123 120 119 121 120 119 119 117 113 110 106 101 95 89 82 75 69 63 59 54
232 229 231 238 250 263 258 249 213 217 211 130 103 134 165 178 190 192 196 188 184 178 152 173 184 209 200 152 164 187 196 182 180 178 171 173 173 170 170 171 172 176 180 170 162 165 168 178 179 179 174 177 182 169 163 171 176 170 162 161 154 149 154 153 148 148 151 152 146 140 137 135 135 135 137 138 134 130 128 126 124 122 122 122 120 118 116 110 104 98 90 83 75 68 62 56 53
231 230 238 245 240 240 232 237 235 229 186 111 107 145 160 171 181 187 205 196 153 149 160 177 198 209 185 192 155 177 196 188 187 178 172 177 174 175 175 175 177 179 183 172 168 170 170 180 183 182 179 182 180 171 172 171 169 171 165 160 157 151 155 161 157 158 159 153 147 145 145 144 144 146 148 148 145 143 140 138 132 129 128 126 125 123 120 114 108 101 92 84 76 68 62 56 53
227 235 233 240 238 225 209 210 220 231 147 104 122 149 163 167 170 185 199 191 109 168 198 187 203 220 33 54 105 175 202 193 190 178 175 180 177 180 179 179 181 184 187 174 172 176 172 180 183 184 186 184 177 175 179 174 169 171 170 165 165 160 158 161 160 164 161 155 151 150 152 154 155 157 159 160 158 155 151 148 142 137 134 136 136 132 129 124 117 109 101 92 85 74 63 57 50
224 234 231 231 231 220 196 197 201 198 111 108 134 159 175 161 173 199 193 196 140 178 198 176 201 212 311 106 133 189 207 198 190 178 179 182 180 184 182 184 186 190 193 180 176 179 177 183 182 181 184 184 180 181 185 180 175 176 176 171 171 169 164 163 160 162 162 159 157 155 159 164 165 168 170 171 170 168 163 158 154 151 148 151 146 143 144 138 131 122 114 104 90 75 57 51 47
209 218 226 225 226 219 206 204 191 139 115 121 143 172 191 161 172 189 183 200 200 183 189 195 206 208 225 213 162 204 211 198 190 182 183 184 185 189 186 189 190 195 197 188 183 182 182 184 182 180 180 185 186 185 187 185 182 183 184 178 176 175 169 166 164 164 165 165 164 164 168 171 175 180 180 180 179 176 173 171 169 167 165 165 156 154 155 148 143 131 122 110 89 58 24 17 28
211 225 226 226 231 206 186 194 153 138 138 125 138 175 199 164 166 177 186 198 196 201 200 200 203 198 221 217 187 216 212 195 191 187 188 188 192 194 192 193 193 198 202 197 191 186 187 184 186 186 181 184 185 185 186 189 188 188 190 186 182 179 175 172 171 170 171 170 172 175 177 182 185 186 185 184 185 183 182 182 180 181 179 176 170 171 169 164 162 149 147 134 120 335 348 357 3
220 235 230 230 226 125 112 149 124 112 130 135 142 164 189 168 158 176 200 205 195 213 208 196 204 194 201 205 203 222 207 194 194 190 191 194 198 198 199 199 198 203 206 205 199 192 191 187 189 190 187 185 183 185 185 188 192 190 191 190 187 183 181 179 178 178 178 177 181 182 185 195 192 185 185 189 191 191 192 188 187 190 189 190 188 192 191 185 193 188 195 209 228 286 329 344 352
214 221 237 249 226 180 145 153 139 124 135 148 138 150 185 177 167 181 205 217 203 221 218 203 210 194 189 198 206 219 205 195 196 194 195 198 202 203 205 206 206 209 211 212 209 203 196 191 192 191 190 190 187 187 186 187 192 193 192 192 190 187 187 184 184 185 186 186 188 190 194 199 195 190 190 195 199 199 202 198 197 199 198 200 200 207 208 205 210 210 214 224 244 281 320 337 351
218 220 240 270 276 223 159 140 137 135 143 151 149 158 171 167 188 200 209 221 204 233 221 209 217 195 197 208 209 217 208 199 200 200 200 201 206 207 209 212 211 212 216 219 218 217 209 200 198 194 192 193 193 192 190 191 192 194 196 196 193 190 190 189 188 190 192 193 194 197 200 201 200 200 200 203 208 209 212 213 211 211 210 211 213 219 222 224 226 226 234 238 254 286 318 332 341
223 220 231 247 269 251 144 141 149 146 162 175 169 156 150 171 205 207 214 226 236 7 200 194 211 192 204 218 214 218 214 206 207 207 206 205 208 210 213 215 215 216 220 223 223 225 223 216 211 205 200 197 196 195 194 196 195 195 197 198 197 193 192 191 192 193 195 197 199 200 201 202 205 207 210 213 216 218 221 223 224 224 224 225 225 231 236 243 250 259 271 278 293 310 323 328 331
221 226 217 226 241 238 136 147 166 168 192 186 154 154 183 201 210 195 217 230 239 272 258 205 189 181 202 221 220 222 222 218 216 215 213 209 210 214 216 216 219 222 223 224 225 227 226 225 224 218 214 210 203 200 197 199 199 199 199 200 200 197 194 194 194 196 198 200 201 203 202 203 206 208 212 216 219 224 227 228 230 232 234 235 236 241 246 254 265 278 291 302 313 321 324 326 327
220 232 214 204 194 171 139 151 183 193 207 185 172 216 211 212 227 209 229 236 230 245 253 237 203 183 201 219 223 223 222 223 221 218 216 212 212 214 216 216 221 227 225 223 225 228 228 225 228 226 223 221 215 211 207 203 202 203 203 203 204 202 198 197 197 199 200 202 204 204 205 204 206 208 212 216 220 224 229 231 233 236 238 240 242 244 249 256 264 274 285 297 309 317 318 320 322
215 222 220 199 189 175 160 182 197 200 206 191 199 225 218 203 240 248 242 241 218 221 239 236 214 198 202 211 220 223 221 223 221 221 221 216 214 213 216 220 225 230 228 225 225 226 226 226 228 227 227 225 221 220 217 215 212 209 208 207 208 206 203 203 202 202 201 203 206 206 207 207 208 210 213 215 220 224 228 232 235 238 240 242 244 246 249 255 263 270 277 287 294 300 302 305 311
216 218 218 206 201 184 185 203 196 197 210 202 212 227 207 178 213 243 228 213 199 202 217 219 210 208 208 206 214 222 222 225 223 221 221 220 216 214 219 225 228 231 230 228 228 226 224 226 228 227 228 227 223 223 220 221 221 217 214 211 212 210 208 209 210 209 207 206 208 209 209 209 211 213 216 218 220 224 226 231 236 239 241 243 246 250 252 255 261 266 272 280 282 286 291 295 303
234 209 208 211 210 199 203 213 199 203 213 202 220 243 204 167 212 230 196 177 187 193 195 202 205 207 211 209 211 219 221 221 221 221 224 227 225 221 225 232 232 231 230 230 230 228 225 225 229 228 228 228 226 226 222 221 223 222 219 216 217 216 213 214 216 216 215 214 214 214 213 212 214 217 220 221 223 226 228 230 235 237 241 244 247 251 253 255 258 263 268 272 276 282 285 288 293
207 193 209 211 214 221 215 216 210 210 211 185 197 254 225 201 218 225 213 207 202 193 195 197 200 202 208 209 209 219 220 215 219 225 230 233 234 232 232 237 235 231 231 231 231 229 227 226 228 229 230 230 227 227 227 223 224 225 222 222 221 221 220 220 221 222 222 222 221 219 218 218 218 221 223 225 227 231 232 233 235 237 241 245 249 252 254 256 257 261 264 266 271 274 277 285 290
196 199 228 211 209 231 217 214 207 203 202 171 177 250 234 217 217 213 217 224 211 198 203 198 196 197 201 205 207 217 219 216 224 232 233 233 235 236 236 237 237 233 231 231 231 229 227 225 226 228 230 231 228 228 229 226 226 226 224 224 226 226 226 226 227 228 228 226 225 224 223 223 223 225 228 230 232 236 240 241 240 241 244 246 248 252 255 257 257 259 261 263 267 268 270 275 276
194 198 226 215 215 230 208 201 191 190 188 166 188 248 246 238 216 199 208 213 198 201 209 202 199 195 195 200 205 214 219 223 232 235 234 234 235 238 237 237 237 235 233 232 232 230 228 225 225 227 229 231 231 229 230 229 229 229 226 225 227 229 229 230 231 231 231 229 228 227 226 227 228 230 233 236 239 241 246 249 249 249 250 250 250 252 254 256 258 259 260 262 265 271 274 273 275
197 192 209 214 221 216 187 189 189 194 180 169 192 236 246 253 214 178 194 199 190 206 213 208 205 197 195 200 209 216 220 229 235 233 234 235 236 237 236 236 237 236 235 234 233 231 229 227 224 225 228 230 232 231 231 232 233 232 231 228 229 231 231 232 232 232 233 231 230 230 229 230 231 233 236 240 244 246 248 251 254 254 252 253 252 253 255 255 257 261 263 265 262 265 277 284 286
200 208 211 197 204 199 165 181 197 200 175 176 201 233 245 243 180 159 188 193 191 211 217 215 212 205 200 200 210 217 216 223 232 232 233 236 236 236 237 237 237 237 236 235 234 231 230 230 226 225 228 229 231 232 231 232 234 235 234 233 232 232 232 233 234 234 235 235 234 234 234 233 233 236 239 242 246 249 251 251 252 253 251 253 251 251 256 256 257 261 265 269 267 263 265 275 284
190 212 224 195 201 210 178 168 194 196 185 189 205 234 252 243 154 154 189 198 201 213 218 221 215 209 207 202 207 213 214 220 231 234 233 236 237 236 237 238 238 237 237 236 236 234 232 232 230 227 228 229 230 232 231 232 234 236 237 237 237 236 235 236 237 238 239 239 239 239 239 239 237 239 242 244 247 249 252 251 250 248 248 251 248 249 256 257 256 256 259 265 271 274 270 267 272
187 196 210 202 207 218 207 155 172 186 198 212 208 223 243 248 230 203 195 197 210 216 218 224 219 212 211 210 211 213 218 225 231 234 234 236 237 235 235 237 238 237 237 236 236 235 233 233 233 229 228 228 229 230 231 231 232 235 237 238 238 238 237 237 238 239 240 241 242 242 243 243 242 241 243 245 246 249 251 252 251 249 247 248 249 255 260 260 261 260 262 264 269 277 276 268 263
188 191 204 213 210 218 215 126 144 181 197 217 220 227 237 241 243 238 213 192 206 223 222 220 217 216 216 217 218 216 224 230 232 233 235 236 235 234 234 236 238 237 236 236 235 235 233 233 234 232 229 227 228 230 230 229 229 231 233 236 238 238 237 237 238 238 239 240 241 242 243 245 245 243 244 245 247 249 251 253 253 250 248 249 256 263 265 263 262 262 264 264 264 269 273 275 271
190 200 213 224 222 217 207 139 130 183 208 217 222 235 241 242 243 244 231 203 203 221 224 220 216 216 218 219 220 221 229 235 236 235 234 236 237 237 236 237 239 238 237 236 235 234 233 233 234 234 231 228 227 228 230 229 228 229 230 233 235 237 237 238 238 237 237 239 240 241 243 245 247 246 246 247 248 250 251 253 256 255 253 253 259 266 267 263 258 257 259 261 265 267 267 272 274
200 213 216 223 229 220 186 151 140 170 223 233 229 240 245 246 245 244 239 224 218 223 225 225 222 220 221 223 226 231 235 236 238 238 236 236 238 239 238 238 239 240 238 237 236 236 234 234 235 236 235 233 230 230 232 233 231 231 232 234 236 237 239 239 239 239 239 240 240 241 244 246 247 248 248 249 250 252 251 252 256 260 260 257 259 263 263 262 257 256 259 261 268 272 268 264 264
209 217 214 220 223 205 151 151 156 168 220 245 247 254 255 255 252 246 241 237 234 232 231 231 228 225 225 223 226 234 239 240 239 240 237 236 237 238 239 238 239 241 241 240 239 238 237 236 236 236 236 236 235 233 234 237 237 235 236 238 239 241 243 244 244 243 244 244 243 242 244 246 248 250 250 251 252 254 254 253 255 258 260 258 258 259 259 260 258 257 258 256 257 267 273 269 260
214 210 211 222 214 216 213 167 162 178 225 269 281 275 271 268 263 253 243 240 241 237 234 234 230 228 227 223 225 232 239 242 242 241 239 239 238 237 237 237 238 240 241 240 238 238 237 236 237 237 236 236 238 237 236 239 241 241 240 241 243 244 246 248 249 247 246 245 244 243 243 245 247 250 251 252 252 253 255 255 254 254 255 256 255 254 255 257 256 254 254 252 249 250 261 268 266
216 212 213 218 210 223 232 132 153 192 223 246 279 279 269 259 255 252 241 235 236 234 230 230 227 227 228 226 228 231 236 240 242 242 241 242 241 238 236 237 239 240 240 240 238 238 237 237 238 238 238 238 238 240 239 239 241 243 242 241 241 243 244 245 247 246 245 245 244 243 243 244 246 248 250 252 252 251 252 253 252 251 252 253 252 250 252 252 252 252 252 252 251 246 248 258 265
212 212 214 216 216 220 193 131 157 246 232 194 223 266 264 244 244 244 238 232 229 225 223 224 225 225 224 225 229 232 236 239 241 242 243 245 243 241 241 240 241 242 241 241 240 240 240 240 241 241 241 240 240 242 242 240 240 242 243 242 241 241 242 243 244 245 246 246 246 246 245 245 246 247 249 251 252 252 251 251 250 251 252 253 250 248 249 249 248 250 250 251 251 247 246 249 253
217 200 201 213 226 224 206 177 202 260 265 147 192 258 271 258 251 246 239 238 232 224 221 224 227 226 221 222 229 235 239 240 240 241 242 245 244 242 245 244 242 244 244 242 241 240 240 240 241 242 242 242 242 243 244 243 241 241 242 244 245 244 245 246 247 248 249 250 250 250 249 248 247 248 249 250 252 254 254 252 250 250 252 252 250 247 246 246 247 248 248 247 248 247 246 245 243
213 153 172 197 216 219 213 212 237 265 306 267 204 241 276 271 257 255 251 250 245 233 227 228 230 230 225 222 228 234 238 239 240 241 241 244 244 242 247 248 245 246 246 244 241 238 238 239 240 242 243 244 244 245 247 247 246 245 245 245 246 246 247 249 250 250 251 251 251 252 253 252 250 249 249 250 251 253 253 253 251 251 251 250 249 247 244 244 247 248 246 245 245 243 241 240 238
192 134 164 187 205 216 214 222 244 276 327 266 220 199 262 266 245 241 242 242 245 238 233 233 231 230 229 226 226 231 236 238 239 242 242 244 243 243 248 253 251 247 245 244 243 239 237 238 240 242 244 246 246 247 248 250 249 249 249 249 249 248 248 249 248 249 250 250 250 251 252 253 252 251 251 251 251 251 252 252 251 250 251 249 248 247 244 242 243 246 246 245 244 241 239 240 241
144 125 124 131 155 166 170 222 243 272 275 259 235 196 241 275 253 222 224 229 236 238 238 238 232 225 224 226 224 225 232 237 238 240 243 245 244 244 250 255 254 250 245 243 242 240 238 239 240 242 243 245 245 246 247 248 248 247 247 249 250 251 250 249 248 247 249 250 249 250 250 249 251 252 252 251 251 251 250 250 249 248 249 249 248 246 244 241 242 244 244 244 245 246 249 250 250
132 119 104 105 115 117 129 204 93 274 259 253 235 217 230 279 257 205 218 226 226 239 245 240 233 225 221 223 223 222 228 234 236 237 241 244 244 245 249 253 252 250 246 241 238 236 236 237 239 240 240 241 242 244 244 245 246 247 246 246 248 250 251 251 250 249 250 250 250 251 250 249 249 252 253 252 250 250 248 248 248 247 247 247 245 242 241 240 243 246 242 238 242 248 254 254 254
144 142 135 133 134 120 147 173 141 239 251 263 240 217 214 241 244 184 230 234 214 237 250 243 234 227 221 221 222 222 226 231 234 236 238 241 242 242 245 249 250 249 247 243 238 235 234 235 237 239 239 240 241 242 244 245 246 247 247 247 248 248 249 251 251 251 251 252 252 253 253 251 251 253 255 252 250 249 246 246 247 245 243 242 241 240 239 237 239 242 239 236 240 247 249 247 249
171 168 165 174 175 159 194 190 178 236 236 88 62 203 216 242 256 249 247 247 231 234 247 250 247 238 230 224 221 223 225 225 229 232 234 237 241 242 243 246 248 248 248 247 243 238 236 236 237 239 240 242 242 243 244 245 245 246 247 248 249 249 249 249 250 252 252 252 253 253 252 253 252 254 257 256 254 250 246 246 246 244 242 242 241 238 237 235 235 238 237 235 238 242 243 242 246
188 185 183 188 176 168 199 196 205 241 225 128 121 148 254 261 268 252 243 246 245 240 239 243 246 245 243 229 211 215 222 223 225 229 231 235 241 245 246 246 247 248 249 249 246 241 239 238 237 239 241 242 244 245 246 246 246 247 247 248 250 250 250 250 250 250 250 250 251 251 252 254 253 254 258 259 256 253 248 245 245 244 243 242 241 238 236 234 234 236 237 235 235 237 238 240 244
190 195 193 193 183 187 200 196 211 227 193 141 156 171 237 240 331 297 255 257 257 253 250 249 250 247 247 246 236 234 239 238 234 233 233 236 241 246 250 249 248 247 247 247 246 243 241 240 239 239 240 242 245 248 250 251 251 251 249 248 248 248 249 250 249 248 248 247 248 251 251 252 251 251 254 256 254 252 249 246 244 243 241 239 238 236 234 233 233 234 235 236 237 238 238 238 239
190 174 188 202 209 207 201 198 210 207 0 192 190 225 248 253 309 302 275 269 259 250 250 248 251 248 244 250 254 256 260 257 247 239 236 238 239 241 244 244 243 242 243 245 245 243 242 241 241 243 244 246 248 250 253 255 256 255 253 250 248 246 248 250 248 247 246 243 243 248 249 250 250 249 250 253 253 251 250 247 244 242 239 237 236 234 232 232 232 233 235 238 239 238 238 238 237
174 169 191 196 341 223 206 201 109 88 274 235 193 239 264 273 284 266 242 245 245 235 235 238 243 243 236 241 249 254 259 259 247 236 230 230 228 229 232 234 238 239 240 243 244 244 245 245 246 248 251 252 252 253 254 257 259 259 257 253 250 247 247 249 248 246 244 239 239 244 245 247 249 248 248 252 253 252 252 248 245 241 237 235 234 232 231 231 233 235 236 240 241 240 240 239 236
162 180 176 129 29 323 224 218 185 195 252 244 205 232 250 251 267 248 218 231 233 224 227 235 241 237 229 224 228 245 256 251 232 223 223 227 230 233 235 236 238 238 238 240 242 244 246 248 250 252 254 255 255 255 255 258 260 261 260 257 253 250 248 249 248 244 242 240 240 242 242 245 249 250 250 254 255 254 253 250 246 241 237 235 235 233 231 231 233 236 237 239 241 240 239 238 236
171 163 150 148 199 203 184 211 213 210 232 250 232 233 240 233 241 248 204 223 229 231 231 228 231 233 230 225 218 238 253 250 244 239 233 235 236 237 238 238 237 237 238 240 242 244 246 249 252 254 254 254 253 254 255 258 261 262 262 261 258 254 250 248 247 244 244 243 244 245 245 248 252 254 256 257 256 254 252 250 245 240 237 235 236 236 234 234 234 236 237 238 239 239 237 236 234
346 156 169 194 232 205 193 205 222 225 229 249 243 228 235 234 234 238 232 224 220 224 227 222 220 227 231 231 218 222 239 245 246 243 237 237 237 235 236 238 240 241 241 241 241 242 244 247 250 251 252 252 252 253 255 256 258 260 260 260 258 256 252 248 245 244 244 245 246 248 248 251 255 256 257 257 255 253 249 245 242 239 235 233 233 235 235 236 237 236 237 237 238 238 237 235 234
175 184 184 191 197 192 218 215 220 236 238 246 249 242 242 235 235 237 237 239 229 222 229 219 198 204 219 231 220 216 228 234 231 231 238 243 242 239 236 237 239 239 236 235 235 237 240 244 248 250 252 255 255 256 256 256 257 258 258 258 257 255 252 249 247 245 246 247 247 247 248 250 253 254 255 255 254 250 245 243 241 238 235 233 232 233 234 237 239 239 238 237 238 237 236 237 238
182 189 185 184 186 172 196 208 206 212 234 249 260 265 252 146 136 232 229 261 298 3 326 184 130 144 189 241 249 234 227 224 225 232 243 250 247 243 239 236 234 232 230 231 233 237 243 248 253 258 260 262 262 261 261 260 260 259 259 259 257 255 252 250 248 247 247 247 246 246 248 249 251 252 253 252 250 246 243 241 239 238 237 234 233 234 235 238 240 241 239 237 236 236 236 236 236